sat.trackr.live / text

‹ back to catalog

STARLINK-31860

NORAD 59670 · 2024-084S

PAYLOAD ACTIVE UNKNOWN

§ Identity

Operator
Country
US
Launch date
2024-05-06
Launch site
AFETR
Launch vehicle
Mass (kg)
RCS (m²)

Purposes: comms

External: N2YO · Heavens-Above · Gunter

§ Orbital elements

Epoch: 2026-05-25T04:39:41.507424Z

Period
94.27 min
Inclination
43.0002°
Eccentricity
0.0001295
Mean motion
15.27578901 rev/d
Perigee alt
482.2 km
Apogee alt
483.9 km
Semi-major
6,861.2 km
B*
3.5610e-5
RAAN
326.2694°
Arg perigee
272.4251°
Mean anomaly
87.6452°
Rev number
11,609

§ Raw data

STARLINK-318601 59670U 24084S   26145.19423041  .00000718  00000+0  35610-4 0  99912 59670  43.0002 326.2694 0001295 272.4251  87.6452 15.27578901116094

JSON: /api/v1/satellites/59670 · /tle

For live sub-satellite position, see the globe view (requires WebGL).

§ Visibility from observer

Set your observer location to see the next 7 days of passes ≥ 10°. The values pass through the URL so the page stays shareable.

No JS? Fill the form by hand. The geolocation button needs JavaScript.